Location: Chemnitz
(49.5500°N, 11.5830°E)
Time: 14:49:49
(UTC+02:00)

ISS - Pass Details

Date: 28 March 2017
Orbit: 399 x 409 km, 51.6° (Epoch: 30 March)

Event Time Altitude Azimuth Distance (km) Brightness Sun altitude
Rises 20:56:44 0° 215° (SW) 2,302 0.2 -13.0°
Reaches altitude 10° 20:59:01 10° 201° (SSW) 1,449 -1.0 -13.4°
Maximum altitude 21:01:45 25° 144° (SE) 855 -2.7 -13.8°
Enters shadow 21:01:53 25° 139° (SE) 858 -2.7 -13.8°
